Weather History for MROC - February, 2013

Change the Weather History Date:

Saturday, February 2, 2013

  Actual Average Record
Temperature  
Mean Temperature 72 °F -  
Max Temperature 80 °F 81 °F 87 °F (1998)
Min Temperature 64 °F 64 °F 60 °F (2009)
Cooling Degree Days 7    
Growing Degree Days 22 (Base 50)    
Moisture  
Dew Point 53 °F    
Average Humidity 52    
Maximum Humidity 68    
Minimum Humidity 33    
Precipitation  
Precipitation 0.00 in 0.01 in - ()
Sea Level Pressure  
Sea Level Pressure 29.98 in    
Wind  
Wind Speed 13 mph ()    
Max Wind Speed 25 mph    
Max Gust Speed 33 mph    
Visibility 8.6 miles    
Events      
Averages and records for this station are not official NWS values.
T = Trace of Precipitation, MM = Missing Value Source: Averaged Metar Reports

Daily Weather History Graph

Daily Weather History Graph

Search for Another Location

Airport or City:

Trip Planner

Search our weather history database for the weather conditions in past years. The results will help you decide how hot, cold, wet, or windy it might be!

Date:

Astronomy

Feb. 02, 2013 Rise Set
Actual Time 5:59 AM CST 5:42 PM CST
Civil Twilight 5:37 AM CST 6:04 PM CST
Nautical Twilight 5:11 AM CST 6:29 PM CST
Astronomical Twilight 4:46 AM CST 6:54 PM CST
Moon 11:23 PM CST (2/2) 10:33 AM CST (2/2)
Length of Visible Light 12h 26m
Length of Day
11h 43m
Waning Gibbous, 59% of the Moon is Illuminated
Feb 2
Waning Gibbous
Feb 3
Last Quarter
Feb 10
New
Feb 17
First Quarter
Feb 25
Full

Hourly Weather History & Observations

Time (CST) Temp. Dew Point Humidity Pressure Visibility Wind Dir Wind Speed Gust Speed Precip Events Conditions
12:00 AM 67 °F 53 °F 50% 29.86 in 12 mi East 13.8 mph - -  
12:00 AM 66.2 °F 53.6 °F 64% 30.04 in - East 13.8 mph 25.3 mph N/A   Clear
1:00 AM 66.2 °F 51.8 °F 60% 30.02 in - ESE 12.7 mph 24.2 mph N/A   Clear
2:00 AM 68.0 °F 51.8 °F 56% 30.01 in - ESE 13.8 mph 25.3 mph N/A   Clear
3:00 AM 66 °F 54 °F 55% 29.86 in 12 mi ESE 12.7 mph - -  
3:00 AM 66.2 °F 53.6 °F 64% 30.00 in - ESE 12.7 mph 24.2 mph N/A   Clear
4:00 AM 64.4 °F 53.6 °F 68% 30.00 in - ESE 15.0 mph 26.5 mph N/A   Clear
5:00 AM 66.2 °F 53.6 °F 64% 30.02 in - East 12.7 mph 25.3 mph N/A   Clear
6:00 AM 65 °F 52 °F 52% 29.92 in 12 mi East 25.3 mph - -   Clear
6:00 AM 66.2 °F 51.8 °F 60% 30.03 in - East 13.8 mph 25.3 mph N/A   Clear
7:00 AM 69.8 °F 48.2 °F 46% 30.05 in - East 12.7 mph 24.2 mph N/A   Clear
8:00 AM 73.4 °F 50.0 °F 44% 30.06 in - East 11.5 mph 23.0 mph N/A   Clear
9:00 AM 76 °F 52 °F 33% 29.89 in 12 mi East 17.3 mph - -   Scattered Clouds
9:00 AM 75.2 °F 51.8 °F 44% 30.06 in - East 17.3 mph 28.8 mph N/A   Clear
10:00 AM 75.2 °F 55.4 °F 50% 30.06 in - East 17.3 mph 29.9 mph N/A   Clear
11:00 AM 78.8 °F 53.6 °F 42% 30.05 in - East 16.1 mph 27.6 mph N/A   Clear
12:00 PM 80.6 °F 51.8 °F 37% 30.02 in 6.2 mi East 16.1 mph 28.8 mph N/A   Partly Cloudy
1:00 PM 78.8 °F 51.8 °F 39% 30.00 in 6.2 mi East 18.4 mph 33.4 mph N/A   Partly Cloudy
2:00 PM 78.8 °F 53.6 °F 42% 29.97 in 6.2 mi East 17.3 mph 29.9 mph N/A   Partly Cloudy
3:00 PM 78 °F 55 °F 34% 29.83 in 12 mi ENE 15.0 mph - -   Scattered Clouds
3:00 PM 78.8 °F 55.4 °F 44% 29.96 in 6.2 mi ENE 15.0 mph 26.5 mph N/A   Partly Cloudy
4:00 PM 77.0 °F 53.6 °F 44% 29.96 in 6.2 mi ENE 17.3 mph 28.8 mph N/A   Partly Cloudy
5:00 PM 73.4 °F 55.4 °F 53% 29.96 in 6.2 mi ESE 16.1 mph 27.6 mph N/A   Partly Cloudy
6:00 PM 70 °F 57 °F 55% 29.87 in 12 mi East 13.8 mph - -   Scattered Clouds
6:00 PM 69.8 °F 57.2 °F 64% 29.97 in 6.2 mi East 13.8 mph 26.5 mph N/A   Partly Cloudy
7:00 PM 68.0 °F 48.2 °F 49% 30.00 in 6.2 mi East 11.5 mph 23.0 mph N/A   Partly Cloudy
8:00 PM 68.0 °F 53.6 °F 60% 30.03 in 6.2 mi ESE 11.5 mph 24.2 mph N/A   Partly Cloudy
9:00 PM 68 °F 55 °F 53% 29.90 in 12 mi ESE 16.1 mph - -   Scattered Clouds
9:00 PM 68.0 °F 55.4 °F 64% 30.04 in 6.2 mi ESE 16.1 mph 27.6 mph N/A   Partly Cloudy
10:00 PM 68.0 °F 53.6 °F 60% 30.05 in - East 11.5 mph 23.0 mph N/A   Clear
11:00 PM 68.0 °F 53.6 °F 60% 30.04 in - ESE 12.7 mph 24.2 mph N/A   Clear